EWG66L LPPT-EDDS

Flight info

Callsign EWG66L
Flight time 2h 19m
Altitude 36000
Route IXIDA DCT TOSDI DCT ZMR DCT NEA DCT DGO DCT LPA DCT GOSVI DCT TOPTU DCT TOU DCT GAI DCT MEN DCT NINUN DCT LATAM DCT ETREK DCT LTP DCT SOPLO DCT OMASI DCT KINNI DCT LAMUR DCT KORED DCT BERSU DCT DITON T163 ZUE T125 REUTL REUTL1W
Aircraft A319/M-SDE3FGHIRWY/LB1

Departure

Time 2026-05-06 18:46
Airport Lisbon Humberto Delgado Airport (LPPT)

Arrival

Time 2026-05-06 21:05
Airport Stuttgart Airport (EDDS)
Time Latitude Longitude Altitude Speed Heading
2026-05-06 18:15 38.76468 -9.13679 351 ft 0 kts 167°
2026-05-06 18:37 38.76478 -9.13682 359 ft 4 kts 168°
2026-05-06 18:38 38.76504 -9.13687 358 ft 4 kts 176°
2026-05-06 18:38 38.76531 -9.13687 358 ft 4 kts 194°
2026-05-06 18:38 38.76551 -9.13673 358 ft 3 kts 251°
2026-05-06 18:38 38.76552 -9.13668 356 ft 0 kts 258°
2026-05-06 18:42 38.76551 -9.13676 351 ft 2 kts 259°
2026-05-06 18:42 38.76545 -9.13712 351 ft 6 kts 259°
2026-05-06 18:42 38.76533 -9.13779 351 ft 9 kts 256°
2026-05-06 18:42 38.76518 -9.13871 351 ft 12 kts 258°
2026-05-06 18:43 38.76564 -9.13947 356 ft 12 kts 327°
2026-05-06 18:43 38.76543 -9.14038 355 ft 13 kts 228°
2026-05-06 18:43 38.76496 -9.14137 357 ft 14 kts 261°
2026-05-06 18:43 38.76523 -9.14258 353 ft 15 kts 295°
2026-05-06 18:44 38.76572 -9.14383 352 ft 15 kts 312°
2026-05-06 18:44 38.76654 -9.14385 353 ft 11 kts 25°
2026-05-06 18:44 38.76668 -9.14377 355 ft 0 kts 24°
2026-05-06 18:45 38.76691 -9.14363 353 ft 21 kts 24°
2026-05-06 18:45 38.77065 -9.14165 357 ft 92 kts 22°
2026-05-06 18:45 38.77844 -9.13750 353 ft 148 kts 22°
2026-05-06 18:46 38.78861 -9.13178 738 ft 159 kts 21°
2026-05-06 18:46 38.79876 -9.12627 1386 ft 158 kts 18°
2026-05-06 18:46 38.80907 -9.12075 1941 ft 167 kts 17°
2026-05-06 18:46 38.82023 -9.11377 2347 ft 189 kts 24°
2026-05-06 18:47 38.83196 -9.10462 2757 ft 208 kts 27°
2026-05-06 18:47 38.84514 -9.09434 3051 ft 234 kts 27°
2026-05-06 18:47 38.85958 -9.08296 3639 ft 252 kts 31°
2026-05-06 18:47 38.87261 -9.06714 4411 ft 264 kts 46°
2026-05-06 18:48 38.88505 -9.05008 5302 ft 267 kts 45°
2026-05-06 18:48 38.89810 -9.03286 6192 ft 271 kts 45°
2026-05-06 18:48 38.91142 -9.01549 7046 ft 275 kts 45°
2026-05-06 18:48 38.92496 -8.99782 7883 ft 280 kts 45°
2026-05-06 18:49 38.93869 -8.97979 8711 ft 285 kts 45°
2026-05-06 18:49 38.95264 -8.96144 9546 ft 289 kts 45°
2026-05-06 18:49 38.96684 -8.94270 10237 ft 299 kts 45°
2026-05-06 18:49 38.98194 -8.92276 10500 ft 323 kts 45°
2026-05-06 18:50 38.99813 -8.90132 10730 ft 346 kts 45°
2026-05-06 18:50 39.01544 -8.87831 10898 ft 369 kts 46°
2026-05-06 18:50 39.03375 -8.85396 11063 ft 389 kts 46°
2026-05-06 18:50 39.05280 -8.82862 11547 ft 397 kts 46°
2026-05-06 18:51 39.07214 -8.80287 12169 ft 402 kts 45°
2026-05-06 18:51 39.09171 -8.77676 12758 ft 408 kts 45°
2026-05-06 18:51 39.11147 -8.75036 13396 ft 412 kts 45°
2026-05-06 18:51 39.13147 -8.72367 13950 ft 417 kts 45°
2026-05-06 18:52 39.15172 -8.69668 14494 ft 421 kts 45°
2026-05-06 18:52 39.17224 -8.66931 15013 ft 426 kts 45°
2026-05-06 18:52 39.19288 -8.64172 15561 ft 430 kts 46°
2026-05-06 18:52 39.21371 -8.61384 16083 ft 433 kts 46°
2026-05-06 18:53 39.23466 -8.58580 16597 ft 436 kts 46°
2026-05-06 18:53 39.25576 -8.55752 17113 ft 439 kts 46°
2026-05-06 18:53 39.27679 -8.52928 17594 ft 443 kts 46°
2026-05-06 18:53 39.29850 -8.50010 18097 ft 446 kts 46°
2026-05-06 18:54 39.31980 -8.47144 18485 ft 450 kts 46°
2026-05-06 18:54 39.34155 -8.44215 18927 ft 452 kts 46°
2026-05-06 18:54 39.36335 -8.41273 19329 ft 455 kts 46°
2026-05-06 18:54 39.38526 -8.38314 19763 ft 457 kts 46°
2026-05-06 18:55 39.40735 -8.35331 20150 ft 460 kts 46°
2026-05-06 18:55 39.42949 -8.32339 20538 ft 462 kts 46°
2026-05-06 18:55 39.45179 -8.29325 20921 ft 464 kts 46°
2026-05-06 18:55 39.47419 -8.26295 21292 ft 467 kts 46°
2026-05-06 18:56 39.49667 -8.23251 21672 ft 469 kts 46°
2026-05-06 18:56 39.51926 -8.20182 22027 ft 472 kts 46°
2026-05-06 18:56 39.54196 -8.17091 22410 ft 473 kts 46°
2026-05-06 18:56 39.56469 -8.13994 22758 ft 475 kts 46°
2026-05-06 18:57 39.58755 -8.10883 23139 ft 477 kts 46°
2026-05-06 18:57 39.61051 -8.07757 23481 ft 479 kts 46°
2026-05-06 18:57 39.63359 -8.04612 23751 ft 482 kts 46°
2026-05-06 18:57 39.65636 -8.01500 24025 ft 483 kts 46°
2026-05-06 18:58 39.67993 -7.98361 24277 ft 486 kts 45°
2026-05-06 18:58 39.70409 -7.95282 24550 ft 488 kts 44°
2026-05-06 18:58 39.72864 -7.92238 24811 ft 490 kts 43°
2026-05-06 18:58 39.75343 -7.89195 25049 ft 492 kts 43°
2026-05-06 18:59 39.77835 -7.86127 25355 ft 492 kts 44°
2026-05-06 18:59 39.80310 -7.83057 25755 ft 491 kts 44°
2026-05-06 18:59 39.82766 -7.79981 26126 ft 490 kts 44°
2026-05-06 18:59 39.85209 -7.76885 26492 ft 490 kts 44°
2026-05-06 19:00 39.87643 -7.73780 26859 ft 490 kts 44°
2026-05-06 19:00 39.90080 -7.70666 27221 ft 490 kts 44°
2026-05-06 19:00 39.92515 -7.67558 27588 ft 491 kts 44°
2026-05-06 19:00 39.94958 -7.64448 27956 ft 491 kts 44°
2026-05-06 19:01 39.97398 -7.61342 28339 ft 491 kts 44°
2026-05-06 19:01 39.99845 -7.58224 28702 ft 491 kts 44°
2026-05-06 19:01 40.02284 -7.55110 29119 ft 490 kts 44°
2026-05-06 19:01 40.04720 -7.51995 29562 ft 489 kts 44°
2026-05-06 19:02 40.07143 -7.48888 29979 ft 489 kts 44°
2026-05-06 19:02 40.09577 -7.45769 30314 ft 489 kts 44°
2026-05-06 19:02 40.12004 -7.42662 30608 ft 490 kts 44°
2026-05-06 19:02 40.14439 -7.39544 30916 ft 490 kts 44°
2026-05-06 19:03 40.16841 -7.36465 31220 ft 491 kts 44°
2026-05-06 19:03 40.19282 -7.33327 31540 ft 491 kts 44°
2026-05-06 19:03 40.21717 -7.30186 31857 ft 491 kts 44°
2026-05-06 19:03 40.24150 -7.27048 32161 ft 492 kts 44°
2026-05-06 19:04 40.26589 -7.23900 32502 ft 492 kts 44°
2026-05-06 19:04 40.29027 -7.20753 32834 ft 492 kts 43°
2026-05-06 19:04 40.31467 -7.17605 33177 ft 492 kts 43°
2026-05-06 19:04 40.33903 -7.14463 33507 ft 492 kts 43°
2026-05-06 19:05 40.36342 -7.11315 33834 ft 492 kts 43°
2026-05-06 19:05 40.38785 -7.08153 34103 ft 493 kts 43°
2026-05-06 19:05 40.41222 -7.04989 34390 ft 492 kts 43°
2026-05-06 19:05 40.43652 -7.01825 34696 ft 492 kts 43°
2026-05-06 19:06 40.46044 -6.98706 35006 ft 491 kts 43°
2026-05-06 19:06 40.48494 -6.95509 35310 ft 489 kts 43°
2026-05-06 19:06 40.50874 -6.92400 35607 ft 488 kts 43°
2026-05-06 19:06 40.53315 -6.89211 35832 ft 488 kts 43°
2026-05-06 19:07 40.55693 -6.86106 35890 ft 490 kts 43°
2026-05-06 19:07 40.60534 -6.79780 35891 ft 490 kts 43°
2026-05-06 19:08 40.65371 -6.73457 35893 ft 490 kts 43°
2026-05-06 19:08 40.70195 -6.67122 35895 ft 490 kts 43°
2026-05-06 19:09 40.75009 -6.60775 35892 ft 489 kts 43°
2026-05-06 19:09 40.79818 -6.54426 35894 ft 489 kts 43°
2026-05-06 19:10 40.84621 -6.48071 35905 ft 489 kts 43°
2026-05-06 19:10 40.89420 -6.41709 35907 ft 489 kts 44°
2026-05-06 19:11 40.94185 -6.35381 35915 ft 488 kts 43°
2026-05-06 19:11 40.98971 -6.29015 35928 ft 487 kts 43°
2026-05-06 19:12 41.03895 -6.22859 35929 ft 486 kts 40°
2026-05-06 19:12 41.08978 -6.16955 35925 ft 485 kts 39°
2026-05-06 19:13 41.14057 -6.11041 35926 ft 486 kts 40°
2026-05-06 19:13 41.19069 -6.05038 35938 ft 485 kts 40°
2026-05-06 19:14 41.24061 -5.99000 35939 ft 484 kts 41°
2026-05-06 19:14 41.29044 -5.92989 35942 ft 484 kts 40°
2026-05-06 19:15 41.34026 -5.86990 35940 ft 483 kts 40°
2026-05-06 19:15 41.38971 -5.81019 35937 ft 483 kts 40°
2026-05-06 19:16 41.43944 -5.74996 35949 ft 483 kts 41°
2026-05-06 19:16 41.48900 -5.68975 35949 ft 482 kts 41°
2026-05-06 19:17 41.53316 -5.62244 35946 ft 484 kts 57°
2026-05-06 19:17 41.56279 -5.54188 35945 ft 483 kts 66°
2026-05-06 19:18 41.59000 -5.45986 35946 ft 483 kts 66°
2026-05-06 19:18 41.61713 -5.37827 35941 ft 483 kts 66°
2026-05-06 19:19 41.64435 -5.29612 35944 ft 484 kts 66°
2026-05-06 19:19 41.67151 -5.21379 35967 ft 483 kts 66°
2026-05-06 19:20 41.69856 -5.13150 35969 ft 483 kts 66°
2026-05-06 19:20 41.72551 -5.04931 35962 ft 482 kts 66°
2026-05-06 19:21 41.75236 -4.96696 35960 ft 482 kts 66°
2026-05-06 19:21 41.77910 -4.88459 35950 ft 482 kts 66°
2026-05-06 19:22 41.80582 -4.80216 35956 ft 482 kts 66°
2026-05-06 19:22 41.83249 -4.71976 35953 ft 482 kts 66°
2026-05-06 19:23 41.85905 -4.63776 35963 ft 482 kts 66°
2026-05-06 19:23 41.88559 -4.55526 35959 ft 482 kts 66°
2026-05-06 19:24 41.91209 -4.47263 35975 ft 482 kts 66°
2026-05-06 19:24 41.93403 -4.40401 35970 ft 481 kts 66°
2026-05-06 19:25 41.96035 -4.32134 35968 ft 481 kts 66°
2026-05-06 19:25 41.98662 -4.23864 35970 ft 481 kts 66°
2026-05-06 19:26 42.01287 -4.15584 35974 ft 481 kts 66°
2026-05-06 19:26 42.03937 -4.07310 35970 ft 481 kts 65°
2026-05-06 19:27 42.06791 -3.99179 35975 ft 481 kts 63°
2026-05-06 19:27 42.09738 -3.91089 35977 ft 481 kts 63°
2026-05-06 19:28 42.12638 -3.82966 35980 ft 481 kts 64°
2026-05-06 19:28 42.15489 -3.74805 35992 ft 481 kts 64°
2026-05-06 19:29 42.18326 -3.66630 35992 ft 481 kts 64°
2026-05-06 19:29 42.21170 -3.58451 35975 ft 481 kts 64°
2026-05-06 19:30 42.24014 -3.50283 35978 ft 481 kts 64°
2026-05-06 19:30 42.26848 -3.42096 35972 ft 481 kts 64°
2026-05-06 19:31 42.29672 -3.33904 35978 ft 481 kts 64°
2026-05-06 19:31 42.33884 -3.21641 35998 ft 482 kts 64°
2026-05-06 19:32 42.36703 -3.13419 36034 ft 482 kts 64°
2026-05-06 19:32 42.39515 -3.05178 36036 ft 482 kts 64°
2026-05-06 19:33 42.42320 -2.96946 36031 ft 482 kts 64°
2026-05-06 19:33 42.44756 -2.88497 36032 ft 483 kts 76°
2026-05-06 19:34 42.45458 -2.79481 36031 ft 482 kts 90°
2026-05-06 19:34 42.45572 -2.70402 36018 ft 483 kts 89°
2026-05-06 19:35 42.45705 -2.61306 36005 ft 483 kts 89°
2026-05-06 19:35 42.45831 -2.52214 35997 ft 484 kts 89°
2026-05-06 19:36 42.45942 -2.43096 35993 ft 484 kts 90°
2026-05-06 19:36 42.46086 -2.33987 35994 ft 484 kts 85°
2026-05-06 19:37 42.47335 -2.25026 35994 ft 485 kts 77°
2026-05-06 19:37 42.48829 -2.16110 35994 ft 485 kts 77°
2026-05-06 19:38 42.50296 -2.07241 35997 ft 486 kts 77°
2026-05-06 19:38 42.51763 -1.98307 36002 ft 486 kts 77°
2026-05-06 19:39 42.53230 -1.89359 36007 ft 486 kts 77°
2026-05-06 19:39 42.54698 -1.80395 36011 ft 487 kts 77°
2026-05-06 19:40 42.56154 -1.71423 36014 ft 487 kts 77°
2026-05-06 19:40 42.57595 -1.62444 36015 ft 487 kts 77°
2026-05-06 19:41 42.59035 -1.53448 36017 ft 488 kts 77°
2026-05-06 19:41 42.60474 -1.44450 36005 ft 488 kts 78°
2026-05-06 19:42 42.61908 -1.35427 36019 ft 489 kts 77°
2026-05-06 19:42 42.63337 -1.26399 36016 ft 489 kts 78°
2026-05-06 19:43 42.64762 -1.17365 36011 ft 489 kts 78°
2026-05-06 19:43 42.66175 -1.08316 36006 ft 490 kts 78°
2026-05-06 19:44 42.67586 -0.99253 36000 ft 490 kts 78°
2026-05-06 19:44 42.68984 -0.90184 36000 ft 491 kts 78°
2026-05-06 19:45 42.70376 -0.81093 36015 ft 491 kts 78°
2026-05-06 19:45 42.71764 -0.71997 36008 ft 492 kts 78°
2026-05-06 19:46 42.73142 -0.62944 36004 ft 492 kts 78°
2026-05-06 19:46 42.74989 -0.54024 36006 ft 490 kts 61°
2026-05-06 19:47 42.78812 -0.46393 36018 ft 488 kts 52°
2026-05-06 19:47 42.82810 -0.38929 36015 ft 488 kts 52°
2026-05-06 19:48 42.86805 -0.31437 36027 ft 489 kts 52°
2026-05-06 19:48 42.90790 -0.23917 36031 ft 489 kts 52°
2026-05-06 19:49 42.94764 -0.16383 36030 ft 489 kts 52°
2026-05-06 19:49 42.98737 -0.08845 36030 ft 489 kts 52°
2026-05-06 19:50 43.02709 -0.01289 36055 ft 489 kts 52°
2026-05-06 19:50 43.06651 0.06212 36054 ft 490 kts 52°
2026-05-06 19:51 43.10618 0.13797 36044 ft 490 kts 52°
2026-05-06 19:51 43.14579 0.21382 36038 ft 490 kts 52°
2026-05-06 19:52 43.18541 0.28993 36043 ft 490 kts 52°
2026-05-06 19:52 43.22497 0.36604 36035 ft 490 kts 52°
2026-05-06 19:53 43.26443 0.44236 36049 ft 490 kts 53°
2026-05-06 19:53 43.30391 0.51864 36039 ft 490 kts 53°
2026-05-06 19:54 43.34330 0.59488 36036 ft 490 kts 53°
2026-05-06 19:54 43.38261 0.67139 36032 ft 490 kts 53°
2026-05-06 19:55 43.42180 0.74799 36031 ft 490 kts 53°
2026-05-06 19:55 43.46094 0.82468 36035 ft 489 kts 53°
2026-05-06 19:56 43.50009 0.90144 36032 ft 489 kts 53°
2026-05-06 19:56 43.53911 0.97805 36016 ft 488 kts 53°
2026-05-06 19:57 43.57809 1.05480 36017 ft 488 kts 53°
2026-05-06 19:57 43.61695 1.13162 36011 ft 488 kts 53°
2026-05-06 19:58 43.65555 1.20814 36020 ft 488 kts 53°
2026-05-06 19:58 43.69430 1.28501 36016 ft 488 kts 53°
2026-05-06 19:59 43.73300 1.36210 36013 ft 488 kts 53°
2026-05-06 19:59 43.77172 1.43932 36008 ft 488 kts 53°
2026-05-06 20:00 43.81028 1.51655 36001 ft 488 kts 53°
2026-05-06 20:00 43.84874 1.59397 36007 ft 488 kts 54°
2026-05-06 20:01 43.88726 1.67156 36000 ft 488 kts 54°
2026-05-06 20:01 43.92555 1.74861 35996 ft 488 kts 54°
2026-05-06 20:02 43.96399 1.82631 35994 ft 488 kts 54°
2026-05-06 20:02 44.00227 1.90420 35994 ft 488 kts 54°
2026-05-06 20:03 44.04054 1.98223 36001 ft 489 kts 54°
2026-05-06 20:03 44.07885 2.06026 35999 ft 488 kts 54°
2026-05-06 20:04 44.11712 2.13843 36000 ft 488 kts 54°
2026-05-06 20:04 44.15529 2.21663 35992 ft 488 kts 54°
2026-05-06 20:05 44.19341 2.29493 36003 ft 488 kts 54°
2026-05-06 20:05 44.23148 2.37341 36006 ft 489 kts 55°
2026-05-06 20:06 44.26953 2.45213 36004 ft 489 kts 55°
2026-05-06 20:06 44.30744 2.53090 36004 ft 489 kts 55°
2026-05-06 20:07 44.34514 2.60930 36003 ft 489 kts 55°
2026-05-06 20:07 44.38305 2.68818 36005 ft 489 kts 55°
2026-05-06 20:08 44.42089 2.76720 36007 ft 489 kts 55°
2026-05-06 20:08 44.45872 2.84643 36000 ft 489 kts 55°
2026-05-06 20:09 44.49644 2.92576 35995 ft 489 kts 55°
2026-05-06 20:09 44.53408 3.00514 35998 ft 489 kts 55°
2026-05-06 20:10 44.57171 3.08467 35990 ft 489 kts 55°
2026-05-06 20:10 44.60929 3.16438 35997 ft 490 kts 56°
2026-05-06 20:11 44.64437 3.24641 35997 ft 490 kts 60°
2026-05-06 20:11 44.67660 3.33006 35996 ft 490 kts 61°
2026-05-06 20:12 44.70902 3.41425 35996 ft 490 kts 60°
2026-05-06 20:12 44.74235 3.49790 35992 ft 490 kts 60°
2026-05-06 20:13 44.77585 3.58135 35984 ft 490 kts 60°
2026-05-06 20:13 44.80352 3.65084 35983 ft 490 kts 60°
2026-05-06 20:14 44.83666 3.73472 35984 ft 490 kts 60°
2026-05-06 20:14 44.86966 3.81874 35976 ft 490 kts 60°
2026-05-06 20:15 44.90269 3.90280 35963 ft 491 kts 60°
2026-05-06 20:15 44.93579 3.98718 35970 ft 491 kts 60°
2026-05-06 20:16 44.96874 4.07166 35980 ft 491 kts 60°
2026-05-06 20:16 45.00169 4.15632 35975 ft 491 kts 60°
2026-05-06 20:17 45.03453 4.24086 35970 ft 491 kts 61°
2026-05-06 20:17 45.06737 4.32564 35963 ft 492 kts 61°
2026-05-06 20:18 45.09993 4.41009 35966 ft 492 kts 61°
2026-05-06 20:18 45.13267 4.49516 35977 ft 492 kts 61°
2026-05-06 20:19 45.16539 4.58035 35976 ft 492 kts 61°
2026-05-06 20:19 45.19797 4.66564 35959 ft 492 kts 61°
2026-05-06 20:20 45.23056 4.75105 35961 ft 492 kts 62°
2026-05-06 20:20 45.26306 4.83675 35959 ft 493 kts 62°
2026-05-06 20:21 45.27928 4.87966 36130 ft 493 kts 62°
2026-05-06 20:21 45.29548 4.92261 36445 ft 492 kts 62°
2026-05-06 20:21 45.31160 4.96533 36729 ft 491 kts 62°
2026-05-06 20:21 45.32775 5.00806 36994 ft 490 kts 62°
2026-05-06 20:22 45.34366 5.05018 37211 ft 490 kts 62°
2026-05-06 20:22 45.35997 5.09346 37393 ft 491 kts 62°
2026-05-06 20:22 45.37608 5.13638 37598 ft 492 kts 62°
2026-05-06 20:22 45.39212 5.17931 37810 ft 492 kts 62°
2026-05-06 20:23 45.40797 5.22176 37954 ft 493 kts 62°
2026-05-06 20:23 45.42407 5.26487 37979 ft 492 kts 62°
2026-05-06 20:23 45.45623 5.35098 37981 ft 492 kts 62°
2026-05-06 20:24 45.49125 5.43452 37973 ft 491 kts 51°
2026-05-06 20:24 45.53945 5.50326 37969 ft 492 kts 40°
2026-05-06 20:25 45.59061 5.56840 37972 ft 493 kts 41°
2026-05-06 20:25 45.64134 5.63344 37987 ft 493 kts 41°
2026-05-06 20:26 45.69239 5.69908 37985 ft 493 kts 41°
2026-05-06 20:26 45.74339 5.76466 37985 ft 493 kts 41°
2026-05-06 20:27 45.79442 5.83020 37983 ft 493 kts 41°
2026-05-06 20:27 45.84550 5.89584 37998 ft 493 kts 41°
2026-05-06 20:28 45.89643 5.96158 37981 ft 493 kts 41°
2026-05-06 20:28 45.94739 6.02751 37983 ft 493 kts 41°
2026-05-06 20:29 45.99845 6.09371 37987 ft 494 kts 41°
2026-05-06 20:29 46.04901 6.15950 38000 ft 494 kts 41°
2026-05-06 20:30 46.11742 6.26965 37984 ft 493 kts 55°
2026-05-06 20:31 46.15682 6.35065 37986 ft 493 kts 55°
2026-05-06 20:31 46.19631 6.43179 37970 ft 494 kts 55°
2026-05-06 20:32 46.23573 6.51296 37967 ft 494 kts 55°
2026-05-06 20:32 46.27528 6.59443 37962 ft 494 kts 55°
2026-05-06 20:33 46.31432 6.67534 37956 ft 494 kts 55°
2026-05-06 20:33 46.35360 6.75699 37971 ft 494 kts 55°
2026-05-06 20:34 46.39282 6.83873 37946 ft 494 kts 56°
2026-05-06 20:34 46.43195 6.92057 37959 ft 494 kts 56°
2026-05-06 20:35 46.47110 7.00251 37962 ft 494 kts 56°
2026-05-06 20:35 46.51024 7.08456 37963 ft 494 kts 56°
2026-05-06 20:36 46.54937 7.16682 37964 ft 494 kts 53°
2026-05-06 20:36 46.59788 7.23696 37959 ft 493 kts 34°
2026-05-06 20:37 46.65749 7.28373 37957 ft 490 kts 23°
2026-05-06 20:37 46.71948 7.32532 37948 ft 491 kts 23°
2026-05-06 20:38 46.78139 7.36734 37952 ft 491 kts 23°
2026-05-06 20:38 46.84119 7.41537 37952 ft 493 kts 36°
2026-05-06 20:39 46.88970 7.48594 37953 ft 494 kts 52°
2026-05-06 20:39 46.93238 7.56464 37959 ft 494 kts 52°
2026-05-06 20:40 46.97514 7.64334 37962 ft 494 kts 52°
2026-05-06 20:40 47.01782 7.72223 37963 ft 494 kts 52°
2026-05-06 20:41 47.06040 7.80137 37970 ft 493 kts 52°
2026-05-06 20:41 47.10258 7.87987 37969 ft 493 kts 52°
2026-05-06 20:42 47.14376 7.96027 37974 ft 492 kts 58°
2026-05-06 20:42 47.18013 8.04556 37973 ft 492 kts 59°
2026-05-06 20:43 47.21637 8.13069 37975 ft 491 kts 58°
2026-05-06 20:43 47.25260 8.21598 37973 ft 491 kts 59°
2026-05-06 20:44 47.28869 8.30135 37956 ft 491 kts 59°
2026-05-06 20:44 47.33066 8.38046 37964 ft 491 kts 48°
2026-05-06 20:45 47.37616 8.45571 37961 ft 491 kts 49°
2026-05-06 20:45 47.42142 8.53119 37962 ft 491 kts 49°
2026-05-06 20:46 47.46664 8.60678 37963 ft 491 kts 49°
2026-05-06 20:46 47.51187 8.68252 37970 ft 490 kts 49°
2026-05-06 20:46 47.53447 8.72044 37389 ft 495 kts 49°
2026-05-06 20:47 47.55692 8.75825 36627 ft 496 kts 49°
2026-05-06 20:47 47.57993 8.79711 35862 ft 496 kts 50°
2026-05-06 20:47 47.60063 8.83788 35107 ft 495 kts 59°
2026-05-06 20:47 47.61886 8.88143 34401 ft 498 kts 60°
2026-05-06 20:48 47.63709 8.92520 33662 ft 501 kts 60°
2026-05-06 20:48 47.65517 8.96865 32863 ft 503 kts 60°
2026-05-06 20:48 47.67357 9.01285 32071 ft 503 kts 60°
2026-05-06 20:48 47.69194 9.05704 31304 ft 503 kts 61°
2026-05-06 20:49 47.71025 9.10115 30563 ft 503 kts 61°
2026-05-06 20:49 47.72858 9.14533 29799 ft 504 kts 62°
2026-05-06 20:49 47.74803 9.18880 28920 ft 505 kts 54°
2026-05-06 20:49 47.77189 9.22719 27992 ft 507 kts 43°
2026-05-06 20:50 47.79994 9.25914 27112 ft 507 kts 33°
2026-05-06 20:50 47.83101 9.28365 26244 ft 505 kts 22°
2026-05-06 20:50 47.86422 9.30019 25405 ft 502 kts 12°
2026-05-06 20:50 47.89861 9.30826 24593 ft 498 kts
2026-05-06 20:51 47.93309 9.31161 23778 ft 494 kts
2026-05-06 20:51 47.96627 9.32305 22930 ft 487 kts 16°
2026-05-06 20:51 47.99835 9.33790 22036 ft 480 kts 17°
2026-05-06 20:51 48.02963 9.35257 21166 ft 474 kts 17°
2026-05-06 20:52 48.06084 9.36730 20327 ft 468 kts 17°
2026-05-06 20:52 48.09168 9.38189 19503 ft 462 kts 17°
2026-05-06 20:52 48.12200 9.39625 18686 ft 456 kts 17°
2026-05-06 20:52 48.15202 9.41050 17844 ft 451 kts 17°
2026-05-06 20:53 48.18178 9.42463 16961 ft 446 kts 17°
2026-05-06 20:53 48.21122 9.43861 16099 ft 441 kts 17°
2026-05-06 20:53 48.24040 9.45245 15266 ft 438 kts 16°
2026-05-06 20:53 48.26927 9.46610 14446 ft 437 kts 16°
2026-05-06 20:54 48.29282 9.47724 13795 ft 436 kts 16°
2026-05-06 20:54 48.32167 9.49093 12922 ft 434 kts 16°
2026-05-06 20:54 48.35036 9.50463 12137 ft 427 kts 16°
2026-05-06 20:54 48.37836 9.51807 11751 ft 419 kts 16°
2026-05-06 20:55 48.40606 9.53136 11372 ft 416 kts 16°
2026-05-06 20:55 48.43334 9.54445 10989 ft 406 kts 16°
2026-05-06 20:55 48.45981 9.55719 10617 ft 393 kts 16°
2026-05-06 20:55 48.48538 9.56964 10249 ft 380 kts 15°
2026-05-06 20:56 48.51066 9.57690 9884 ft 360 kts
2026-05-06 20:56 48.53505 9.58124 9433 ft 346 kts
2026-05-06 20:56 48.55848 9.58542 8954 ft 331 kts
2026-05-06 20:56 48.58088 9.58947 8487 ft 317 kts
2026-05-06 20:57 48.60241 9.59344 8025 ft 306 kts
2026-05-06 20:57 48.62327 9.59734 7567 ft 296 kts
2026-05-06 20:57 48.64312 9.60112 7126 ft 287 kts
2026-05-06 20:57 48.66266 9.60493 6678 ft 278 kts
2026-05-06 20:58 48.68156 9.60866 6245 ft 270 kts
2026-05-06 20:58 48.69991 9.61165 5768 ft 259 kts 355°
2026-05-06 20:58 48.71663 9.60590 5596 ft 237 kts 332°
2026-05-06 20:58 48.72993 9.59308 5577 ft 221 kts 315°
2026-05-06 20:59 48.73969 9.57545 5474 ft 216 kts 298°
2026-05-06 20:59 48.74539 9.55492 5312 ft 208 kts 282°
2026-05-06 20:59 48.74690 9.53348 5094 ft 203 kts 267°
2026-05-06 20:59 48.74446 9.51274 4854 ft 198 kts 254°
2026-05-06 21:00 48.74077 9.49309 4589 ft 193 kts 255°
2026-05-06 21:00 48.73719 9.47382 4371 ft 183 kts 255°
2026-05-06 21:00 48.73377 9.45549 4083 ft 177 kts 255°
2026-05-06 21:00 48.73049 9.43793 3852 ft 169 kts 255°
2026-05-06 21:01 48.72744 9.42161 3625 ft 157 kts 255°
2026-05-06 21:01 48.72465 9.40671 3440 ft 138 kts 255°
2026-05-06 21:01 48.72211 9.39315 3256 ft 131 kts 254°
2026-05-06 21:01 48.71966 9.38007 3086 ft 128 kts 254°
2026-05-06 21:02 48.71723 9.36716 2911 ft 127 kts 253°
2026-05-06 21:02 48.71483 9.35433 2741 ft 127 kts 253°
2026-05-06 21:02 48.71243 9.34153 2557 ft 126 kts 253°
2026-05-06 21:02 48.71004 9.32883 2413 ft 126 kts 252°
2026-05-06 21:03 48.70764 9.31608 2226 ft 126 kts 252°
2026-05-06 21:03 48.70521 9.30321 2019 ft 127 kts 252°
2026-05-06 21:03 48.70278 9.29033 1837 ft 128 kts 253°
2026-05-06 21:03 48.70032 9.27729 1661 ft 128 kts 252°
2026-05-06 21:04 48.69786 9.26422 1488 ft 130 kts 252°
2026-05-06 21:04 48.69538 9.25114 1334 ft 128 kts 252°
2026-05-06 21:04 48.69297 9.23828 1207 ft 121 kts 253°
2026-05-06 21:04 48.69100 9.22798 1221 ft 80 kts 254°
2026-05-06 21:05 48.69009 9.22316 1232 ft 66 kts 254°
2026-05-06 21:05 48.68864 9.21552 1253 ft 51 kts 253°
2026-05-06 21:05 48.68803 9.21233 1259 ft 48 kts 254°
2026-05-06 21:05 48.68717 9.20773 1274 ft 45 kts 254°
2026-05-06 21:06 48.68677 9.20383 1276 ft 35 kts 274°
2026-05-06 21:06 48.68724 9.20082 1288 ft 24 kts 294°
2026-05-06 21:06 48.68802 9.19937 1296 ft 14 kts 314°
2026-05-06 21:06 48.68872 9.19879 1301 ft 9 kts 335°
2026-05-06 21:07 48.68889 9.19818 1304 ft 5 kts 261°
2026-05-06 21:07 48.68877 9.19756 1306 ft 6 kts 252°
2026-05-06 21:07 48.68862 9.19677 1308 ft 10 kts 255°
2026-05-06 21:07 48.68840 9.19556 1310 ft 14 kts 253°
2026-05-06 21:08 48.68814 9.19418 1313 ft 11 kts 256°
2026-05-06 21:08 48.68852 9.19372 1315 ft 7 kts 345°
2026-05-06 21:08 48.68884 9.19359 1315 ft 2 kts 344°
2026-05-06 21:08 48.68885 9.19358 1315 ft 0 kts 344°